Weather History for Conroe, TX

Change the Weather History Date:

Saturday, March 2, 2013

  Actual Average Record
Temperature  
Mean Temperature 42 °F -  
Max Temperature 54 °F 65 °F 82 °F (1999)
Min Temperature 30 °F 44 °F 27 °F (2009)
Degree Days  
Heating Degree Days 23    
Moisture  
Dew Point 26 °F    
Average Humidity 59    
Maximum Humidity 88    
Minimum Humidity 26    
Precipitation  
Precipitation 0.00 in - - ()
Sea Level Pressure  
Sea Level Pressure 30.31 in    
Wind  
Wind Speed 8 mph (NNW)    
Max Wind Speed 18 mph    
Max Gust Speed 30 mph    
Visibility 10 miles    
Events      
Averages and records for this station are not official NWS values.
T = Trace of Precipitation, MM = Missing Value Source: NWS Daily Summary

Daily Weather History Graph

Daily Weather History Graph

Search for Another Location

Airport:

Trip Planner

Search our weather history database for the weather conditions in past years. The results will help you decide how hot, cold, wet, or windy it might be!

Date:

Astronomy

Mar. 02, 2013 Rise Set
Actual Time 6:46 AM CST 6:21 PM CST
Civil Twilight 6:22 AM CST 6:45 PM CST
Nautical Twilight 5:54 AM CST 7:13 PM CST
Astronomical Twilight 5:26 AM CST 7:41 PM CST
Moon 11:35 PM CST (3/2) 9:39 AM CST (3/2)
Length of Visible Light 12h 23m
Length of Day
11h 35m
Waning Gibbous, 74% of the Moon is Illuminated
Mar 2
Waning Gibbous
Mar 4
Last Quarter
Mar 11
New
Mar 19
First Quarter
Mar 27
Full

Hourly Weather History & Observations

Time (CST) Temp. Windchill Dew Point Humidity Pressure Visibility Wind Dir Wind Speed Gust Speed Precip Events Conditions
12:53 AM 37.0 °F 34.5 °F 33.1 °F 86% 30.27 in 10.0 mi NW 3.5 mph - N/A   Overcast
1:53 AM 36.0 °F 32.1 °F 32.0 °F 86% 30.28 in 10.0 mi NNW 4.6 mph - N/A   Clear
3:53 AM 39.0 °F 34.8 °F 30.9 °F 73% 30.29 in 10.0 mi NNW 5.8 mph - N/A   Clear
4:53 AM 37.9 °F 33.5 °F 30.0 °F 73% 30.29 in 10.0 mi NNW 5.8 mph - N/A   Clear
6:53 AM 34.0 °F 28.0 °F 28.0 °F 79% 30.34 in 10.0 mi NNW 6.9 mph - N/A   Clear
7:53 AM 37.9 °F 31.5 °F 30.0 °F 73% 30.36 in 10.0 mi NNW 9.2 mph - N/A   Clear
8:53 AM 41.0 °F 34.3 °F 27.0 °F 57% 30.39 in 10.0 mi NNW 11.5 mph - N/A   Clear
9:53 AM 44.1 °F 37.4 °F 26.1 °F 49% 30.37 in 10.0 mi North 13.8 mph 19.6 mph N/A   Clear
10:53 AM 46.9 °F - 25.0 °F 42% 30.36 in 10.0 mi NW 11.5 mph 21.9 mph N/A   Clear
11:53 AM 48.9 °F - 26.1 °F 41% 30.35 in 10.0 mi NNW 15.0 mph 27.6 mph N/A   Clear
12:53 PM 51.1 °F - 25.0 °F 36% 30.32 in 10.0 mi NNW 17.3 mph 28.8 mph N/A   Clear
1:53 PM 53.1 °F - 21.0 °F 29% 30.30 in 10.0 mi North 18.4 mph 29.9 mph N/A   Clear
2:53 PM 54.0 °F - 19.9 °F 26% 30.29 in 10.0 mi NW 18.4 mph 29.9 mph N/A   Clear
3:53 PM 53.1 °F - 21.0 °F 29% 30.28 in 10.0 mi NNW 13.8 mph - N/A   Clear
4:53 PM 53.1 °F - 19.9 °F 27% 30.28 in 10.0 mi NW 12.7 mph - N/A   Clear
5:53 PM 51.1 °F - 19.9 °F 29% 30.29 in 10.0 mi NNW 8.1 mph 17.3 mph N/A   Clear
7:53 PM 37.0 °F - 28.0 °F 70% 30.31 in 10.0 mi Calm Calm - N/A   Clear
8:53 PM 34.0 °F - 28.0 °F 79% 30.30 in 10.0 mi Calm Calm - N/A   Clear
9:53 PM 32.0 °F - 27.0 °F 82% 30.30 in 10.0 mi Calm Calm - N/A   Clear
10:53 PM 30.0 °F - 27.0 °F 88% 30.30 in 10.0 mi Calm Calm - N/A   Clear
11:53 PM 30.0 °F - 27.0 °F 88% 30.29 in 10.0 mi Calm Calm - N/A   Clear